Regional Weather Roundup
Issued by NWS

Home | Current Version | Previous Version | Graphics & Text | Print | Product List | Glossary On
Versions: 1 2 3 4 5 6 7 8 9 10 11 12 13 14 15 16 17 18 19 20 21 22 23 24 25 26 27 28 29 30 31 32 33 34 35 36 37 38 39 40 41 42 43 44 45 46 47 48 49 50
375
ASUS45 KBOI 282110
RWRID

IDAHO REGIONAL WEATHER ROUNDUP
NATIONAL WEATHER SERVICE BOISE ID
300 PM MDT SAT MAY 28 2016

NOTE: "FAIR" INDICATES FEW OR NO CLOUDS BELOW 12000 FEET
WITH NO SIGNIFICANT WEATHER AND/OR OBSTRUCTIONS TO VISIBILITY

IDZ012-014-282200-
SOUTHWEST IDAHO


CITY           SKY/WX    TMP DP  RH WIND       PRES   REMARKS
BOISE          SUNNY     66  25  21 NW9       30.06F
CALDWELL       SUNNY     68  32  26 VRB7      30.06F
MOUNTAIN HOME  SUNNY     72  38  28 VRB6      30.04F
$$

IDZ016-017-282200-
SOUTHCENTRAL IDAHO


CITY           SKY/WX    TMP DP  RH WIND       PRES   REMARKS
BURLEY         SUNNY     63  31  30 W12       30.06F
JEROME         SUNNY     66  28  24 W14G21    30.07F
TWIN FALLS     SUNNY     64  29  26 W8        30.07F
$$

IDZ019>023-282200-
SOUTHEAST IDAHO


CITY           SKY/WX    TMP DP  RH WIND       PRES   REMARKS
IDAHO FALLS    MOSUNNY   64  26  23 S14G25    30.06F
POCATELLO      MOSUNNY   66  27  23 W17G25    30.08F
REXBURG        SUNNY     63  31  30 SW14G21   30.06S
$$

IDZ006-010-011-018-031-032-282200-
CENTRAL IDAHO MOUNTAINS


CITY           SKY/WX    TMP DP  RH WIND       PRES   REMARKS
MCCALL         SUNNY     57  30  35 VRB6      30.07S
HAILEY         MOSUNNY   61  30  31 S8        30.06F
STANLEY          N/A     59  23  25 N13G18    30.08S
SALMON         CLOUDY    63  37  39 N8        29.98F
CHALLIS        MOSUNNY   65  21  18 VRB5      29.99F
$$

IDZ002-004-006-007-026-282200-
NORTHERN IDAHO


CITY           SKY/WX    TMP DP  RH WIND       PRES   REMARKS
LEWISTON       SUNNY     68  38  33 N8        30.04F
LOWELL           N/A     69  35  28 VRB3      30.02F
COEUR D`ALENE  CLOUDY    59  37  44 S9        30.04F
MULLAN PASS    CLOUDY    40  28  62 VRB3      30.08R
$$




USA.gov is the U.S. government's official web portal to all federal, state and local government web resources and services.